Time,TemperatureF,DewpointF,PressureIn,WindDirection,WindDirectionDegrees,WindSpeedMPH,WindSpeedGustMPH,Humidity,HourlyPrecipIn,Conditions,Clouds,dailyrainin,SoftwareType,DateUTC
2013-09-15 00:12:00,63.0,46.0,30.20,South,180,0.0,6.0,54,0.00,,,0.00,,2013-09-15 06:12:00,
2013-09-15 00:21:00,63.0,46.0,30.21,South,180,1.0,3.0,53,0.00,,,0.00,,2013-09-15 06:21:00,
2013-09-15 00:42:00,63.0,46.0,30.20,NW,315,1.0,4.0,53,0.00,,,0.00,,2013-09-15 06:42:00,
2013-09-15 00:52:00,63.0,46.0,30.20,SW,225,2.0,4.0,53,0.00,,,0.00,,2013-09-15 06:52:00,
2013-09-15 01:11:00,62.0,45.0,30.20,South,180,0.0,2.0,54,0.00,,,0.00,,2013-09-15 07:11:00,
2013-09-15 01:22:00,61.0,45.0,30.21,South,180,3.0,5.0,55,0.00,,,0.00,,2013-09-15 07:22:00,
2013-09-15 01:42:00,60.0,45.0,30.21,South,180,3.0,4.0,57,0.00,,,0.00,,2013-09-15 07:42:00,
2013-09-15 01:52:00,60.0,45.0,30.22,SE,135,2.0,4.0,57,0.00,,,0.00,,2013-09-15 07:52:00,
2013-09-15 02:11:00,59.0,44.0,30.21,SE,135,2.0,4.0,58,0.00,,,0.00,,2013-09-15 08:11:00,
2013-09-15 02:21:00,58.0,44.0,30.21,SE,135,0.0,2.0,59,0.00,,,0.00,,2013-09-15 08:21:00,
2013-09-15 02:43:00,57.0,43.0,30.21,SE,135,1.0,2.0,60,0.00,,,0.00,,2013-09-15 08:43:00,
2013-09-15 02:52:00,56.0,42.0,30.21,North,0,1.0,2.0,60,0.00,,,0.00,,2013-09-15 08:52:00,
2013-09-15 03:11:00,55.0,42.0,30.21,SW,225,0.0,2.0,62,0.00,,,0.00,,2013-09-15 09:11:00,
2013-09-15 03:21:00,54.0,42.0,30.21,South,180,2.0,4.0,64,0.00,,,0.00,,2013-09-15 09:21:00,
2013-09-15 03:43:00,53.0,42.0,30.20,SE,135,2.0,2.0,65,0.00,,,0.00,,2013-09-15 09:43:00,
2013-09-15 03:53:00,53.0,42.0,30.20,SE,135,2.0,3.0,65,0.00,,,0.00,,2013-09-15 09:53:00,
2013-09-15 04:12:00,53.0,42.0,30.20,SE,135,0.0,2.0,65,0.00,,,0.00,,2013-09-15 10:12:00,
2013-09-15 04:23:00,52.0,41.0,30.20,South,180,0.0,1.0,66,0.00,,,0.00,,2013-09-15 10:23:00,
2013-09-15 04:42:00,52.0,41.0,30.20,South,180,0.0,2.0,67,0.00,,,0.00,,2013-09-15 10:42:00,
2013-09-15 04:53:00,51.0,41.0,30.20,SE,135,2.0,2.0,68,0.00,,,0.00,,2013-09-15 10:53:00,
2013-09-15 05:12:00,51.0,41.0,30.19,South,180,0.0,2.0,68,0.00,,,0.00,,2013-09-15 11:12:00,
2013-09-15 05:22:00,51.0,41.0,30.20,South,180,2.0,3.0,69,0.00,,,0.00,,2013-09-15 11:22:00,
2013-09-15 05:42:00,51.0,41.0,30.20,South,180,0.0,2.0,69,0.00,,,0.00,,2013-09-15 11:42:00,
2013-09-15 05:52:00,51.0,42.0,30.20,South,180,0.0,2.0,70,0.00,,,0.00,,2013-09-15 11:52:00,
2013-09-15 06:12:00,50.0,41.0,30.19,South,180,2.0,4.0,71,0.00,,,0.00,,2013-09-15 12:12:00,
2013-09-15 06:21:00,50.0,41.0,30.19,SE,135,1.0,2.0,70,0.00,,,0.00,,2013-09-15 12:21:00,
2013-09-15 06:42:00,50.0,41.0,30.19,SE,135,1.0,2.0,72,0.00,,,0.00,,2013-09-15 12:42:00,
2013-09-15 06:52:00,49.0,40.0,30.19,SE,135,2.0,3.0,72,0.00,,,0.00,,2013-09-15 12:52:00,
2013-09-15 07:11:00,49.0,41.0,30.20,SE,135,2.0,4.0,73,0.00,,,0.00,,2013-09-15 13:11:00,
2013-09-15 07:21:00,49.0,41.0,30.19,NW,315,0.0,0.0,73,0.00,,,0.00,,2013-09-15 13:21:00,
2013-09-15 07:52:00,49.0,41.0,30.20,South,180,1.0,3.0,74,0.00,,,0.00,,2013-09-15 13:52:00,
2013-09-15 08:11:00,49.0,41.0,30.20,South,180,1.0,2.0,75,0.00,,,0.00,,2013-09-15 14:11:00,
2013-09-15 08:22:00,49.0,41.0,30.20,SE,135,1.0,2.0,75,0.00,,,0.00,,2013-09-15 14:22:00,
2013-09-15 13:21:00,78.0,52.0,30.12,North,0,2.0,4.0,41,0.00,,,0.00,,2013-09-15 19:21:00,
2013-09-15 13:52:00,78.0,52.0,30.11,West,270,4.0,6.0,41,0.00,,,0.00,,2013-09-15 19:52:00,
2013-09-15 14:11:00,79.0,53.0,30.11,North,0,2.0,6.0,41,0.00,,,0.00,,2013-09-15 20:11:00,
2013-09-15 14:22:00,79.0,53.0,30.10,West,270,1.0,5.0,40,0.00,,,0.00,,2013-09-15 20:22:00,
2013-09-15 14:42:00,80.0,53.0,30.09,NW,315,2.0,8.0,40,0.00,,,0.00,,2013-09-15 20:42:00,
2013-09-15 14:53:00,81.0,54.0,30.09,North,0,2.0,4.0,40,0.00,,,0.00,,2013-09-15 20:53:00,
2013-09-15 15:11:00,82.0,52.0,30.09,West,270,3.0,8.0,36,0.00,,,0.00,,2013-09-15 21:11:00,
2013-09-15 15:21:00,82.0,53.0,30.09,NW,315,2.0,8.0,37,0.00,,,0.00,,2013-09-15 21:21:00,
2013-09-15 15:44:00,82.0,52.0,30.07,East,90,1.0,11.0,35,0.00,,,0.00,,2013-09-15 21:44:00,
2013-09-15 15:54:00,82.0,52.0,30.07,SW,225,3.0,8.0,36,0.00,,,0.00,,2013-09-15 21:54:00,
2013-09-15 16:14:00,82.0,52.0,30.06,NE,45,3.0,8.0,35,0.00,,,0.00,,2013-09-15 22:14:00,
2013-09-15 16:23:00,82.0,52.0,30.06,East,90,1.0,12.0,36,0.00,,,0.00,,2013-09-15 22:23:00,
2013-09-15 16:43:00,82.0,52.0,30.04,West,270,1.0,5.0,36,0.00,,,0.00,,2013-09-15 22:43:00,
2013-09-15 16:53:00,82.0,53.0,30.04,NE,45,2.0,4.0,37,0.00,,,0.00,,2013-09-15 22:53:00,
2013-09-15 17:12:00,83.0,53.0,30.03,SE,135,4.0,11.0,36,0.00,,,0.00,,2013-09-15 23:12:00,
2013-09-15 17:22:00,83.0,53.0,30.02,NE,45,2.0,7.0,36,0.00,,,0.00,,2013-09-15 23:22:00,
2013-09-15 17:42:00,83.0,53.0,30.02,West,270,4.0,8.0,36,0.00,,,0.00,,2013-09-15 23:42:00,
2013-09-15 17:52:00,82.0,53.0,30.03,South,180,2.0,5.0,37,0.00,,,0.00,,2013-09-15 23:52:00,
2013-09-15 18:11:00,81.0,52.0,30.02,South,180,0.0,5.0,37,0.00,,,0.00,,2013-09-16 00:11:00,
2013-09-15 18:21:00,81.0,52.0,30.01,SW,225,2.0,7.0,37,0.00,,,0.00,,2013-09-16 00:21:00,
2013-09-15 18:42:00,81.0,53.0,30.01,NW,315,3.0,13.0,38,0.00,,,0.00,,2013-09-16 00:42:00,
2013-09-15 18:52:00,80.0,52.0,30.00,West,270,1.0,2.0,38,0.00,,,0.00,,2013-09-16 00:52:00,
2013-09-15 19:12:00,80.0,53.0,30.00,South,180,0.0,3.0,40,0.00,,,0.00,,2013-09-16 01:12:00,
2013-09-15 19:21:00,79.0,53.0,29.99,South,180,1.0,2.0,41,0.00,,,0.00,,2013-09-16 01:21:00,
2013-09-15 19:42:00,77.0,52.0,29.99,South,180,1.0,2.0,42,0.00,,,0.00,,2013-09-16 01:42:00,
2013-09-15 19:52:00,76.0,52.0,29.98,SE,135,2.0,3.0,43,0.00,,,0.00,,2013-09-16 01:52:00,
2013-09-15 20:12:00,74.0,52.0,29.97,SE,135,0.0,2.0,46,0.00,,,0.00,,2013-09-16 02:12:00,
2013-09-15 20:22:00,73.0,52.0,29.97,South,180,2.0,4.0,48,0.00,,,0.00,,2013-09-16 02:22:00,
2013-09-15 20:42:00,72.0,51.0,29.97,South,180,2.0,2.0,48,0.00,,,0.00,,2013-09-16 02:42:00,
2013-09-15 20:52:00,71.0,50.0,29.97,SE,135,2.0,3.0,48,0.00,,,0.00,,2013-09-16 02:52:00,
2013-09-15 21:11:00,71.0,50.0,29.97,SE,135,0.0,3.0,48,0.00,,,0.00,,2013-09-16 03:11:00,
2013-09-15 21:22:00,70.0,50.0,29.97,SW,225,0.0,3.0,49,0.00,,,0.00,,2013-09-16 03:22:00,
2013-09-15 21:44:00,69.0,50.0,29.97,SE,135,2.0,3.0,51,0.00,,,0.00,,2013-09-16 03:44:00,
2013-09-15 21:55:00,68.0,50.0,29.96,South,180,0.0,2.0,52,0.00,,,0.00,,2013-09-16 03:55:00,
2013-09-15 22:13:00,66.0,49.0,29.96,South,180,0.0,2.0,54,0.00,,,0.00,,2013-09-16 04:13:00,
2013-09-15 22:24:00,65.0,48.0,29.96,South,180,0.0,2.0,55,0.00,,,0.00,,2013-09-16 04:24:00,
2013-09-15 22:43:00,64.0,47.0,29.96,SE,135,2.0,4.0,55,0.00,,,0.00,,2013-09-16 04:43:00,
2013-09-15 22:54:00,64.0,48.0,29.96,South,180,2.0,2.0,56,0.00,,,0.00,,2013-09-16 04:54:00,
2013-09-15 23:12:00,64.0,48.0,29.96,South,180,2.0,3.0,56,0.00,,,0.00,,2013-09-16 05:12:00,
2013-09-15 23:22:00,63.0,48.0,29.96,South,180,1.0,3.0,58,0.00,,,0.00,,2013-09-16 05:22:00,
2013-09-15 23:44:00,62.0,47.0,29.96,South,180,1.0,2.0,59,0.00,,,0.00,,2013-09-16 05:44:00,
2013-09-15 23:53:00,62.0,48.0,29.95,SE,135,1.0,3.0,60,0.00,,,0.00,,2013-09-16 05:53:00,